[Iaude] MPEC X235: 2023 XP10 [a=0.76,e=0.44,i=30.6,H=24.5]

mpec at marsden.cfa.harvard.edu mpec at marsden.cfa.harvard.edu
Tue Dec 12 01:08:08 EST 2023


M.P.E.C. 2023-X235                            Issued 2023 December 12, 06:06 UT

     The Minor Planet Electronic Circulars contain information on unusual
         minor planets, routine data on comets and natural satellites,
         and occasional editorial announcements.  They are published
    on behalf of Division F of the International Astronomical Union by the
          Minor Planet Center, Smithsonian Astrophysical Observatory,
                          Cambridge, MA 02138, U.S.A.
			  
             Prepared using the Tamkin Foundation Computer Network

                              MPC at CFA.HARVARD.EDU
            URL https://www.minorplanetcenter.net/    ISSN 1523-6714

                                   2023 XP10                                    


Observations:
     K23X10P*1C2023 12 10.20790406 01 33.240+52 04 21.11         21.29GVEX235G96
     K23X10P 1C2023 12 10.21313706 01 26.288+52 03 39.82         21.11GVEX235G96
     K23X10P 1C2023 12 10.21839506 01 19.441+52 02 59.57         20.71GVEX235G96
     K23X10P KC2023 12 10.24012406 00 50.458+52 00 06.55         20.76GVEX235I52
     K23X10P KC2023 12 10.24339106 00 46.091+51 59 41.03         20.86GVEX235I52
     K23X10P  C2023 12 10.24543306 00 42.899+51 59 24.70         20.9 GVEX235H01
     K23X10P KC2023 12 10.24665406 00 41.767+51 59 15.58         20.68GVEX235I52
     K23X10P  C2023 12 10.24929606 00 37.783+51 58 54.04         20.7 GVEX235H01
     K23X10P KC2023 12 10.24991006 00 37.357+51 58 49.22         20.16GVEX235I52
     K23X10P  C2023 12 10.25932006 00 24.365+51 57 33.54         20.7 GVEX235H01
     K23X10P  C2023 12 10.26646406 00 14.816+51 56 36.16         20.8 GVEX235H01
     K23X10P KC2023 12 10.42116005 56 48.050+51 35 07.90         21.06GVEX235I52
     K23X10P KC2023 12 10.42442005 56 43.680+51 34 40.00               VEX235I52
     K23X10P KC2023 12 10.43094805 56 34.990+51 33 43.50         20.94GVEX235I52
     K23X10P  C2023 12 11.32599905 37 23.942+49 15 06.45         21.3 GVEX235H01
     K23X10P  C2023 12 11.32960405 37 19.169+49 14 29.79         20.4 GVEX235H01
     K23X10P  C2023 12 11.34056705 37 04.595+49 12 37.98         20.4 GVEX235H01
     K23X10P  C2023 12 11.34662205 36 56.576+49 11 35.88         20.8 GVEX235H01
     K23X10P KC2023 12 12.22545105 18 25.42 +46 30 10.7          21.1 GVEX235H21
     K23X10P KC2023 12 12.23104505 18 18.19 +46 29 04.5                VEX235H21

Observer details:
G96 Mt. Lemmon Survey.  Observer D. Rankin.  Measurers E. C. Beshore, D. Fay,
    J. B. Fazekas, D. C. Fuls, A. R. Gibbs, A. D. Grauer, H. Groeller, J. K.
    Hogan, R. A. Kowalski, S. M. Larson, G. J. Leonard, D. Rankin, R. L.
    Seaman, F. C. Shelly, K. W. Wierzchos.  1.5-m reflector + 10K CCD.
H01 Magdalena Ridge Observatory, Socorro.  Observers W. H. Ryan, E. V. Ryan.
    Measurer W. H. Ryan.  2.4-m f/8.9 Ritchey-Chretien + CCD.
H21 Astronomical Research Observatory, Westfield.  Observer R. Holmes.
    Measurers T. Linder, R. Holmes, L. Horn.  0.81-m f/4.0 astrograph + CCD.
I52 Steward Observatory, Mt. Lemmon Station.  Observer G. J. Leonard.
    Measurers E. C. Beshore, D. Fay, J. B. Fazekas, D. C. Fuls, A. R. Gibbs,
    A. D. Grauer, H. Groeller, J. K. Hogan, R. A. Kowalski, S. M. Larson, G.
    J. Leonard, D. Rankin, R. L. Seaman, F. C. Shelly, K. W. Wierzchos.  1.0-m
    prime focus + CCD.

Orbital elements:
2023 XP10                                                Earth MOID = 0.0723 AU
Epoch 2023 Sept. 13.0 TT = JDT 2460200.5                MPC                     
M  69.22409              (2000.0)            P               Q                  
n   1.49280535     Peri.  345.40842     -0.32749264     +0.79779403             
a   0.7582294      Node   263.34194     -0.80776990     -0.51434751             
e   0.4382455      Incl.   30.64197     -0.49015953     +0.31459709             
P   0.66           H   24.57          G   0.15           U   7                  
Residuals in seconds of arc
231210 G96  0.3-  0.1+    231210 H01  0.2+  0.1+    231211 H01  0.0   0.0
231210 G96  0.4-  0.2-    231210 I52  0.4-  0.1-    231211 H01  0.1+  0.0
231210 G96  0.8+  0.9+    231210 H01  0.1-  0.2-    231211 H01  0.1-  0.1+
231210 I52  0.1+  0.6-    231210 H01  0.1-  0.1-    231211 H01  0.0   0.0
231210 I52  0.0   0.1-    231210 I52  0.1-  0.0     231212 H21  0.0   0.0
231210 H01  0.1-  0.1-    231210 I52  0.2-  0.3+    231212 H21  0.0   0.1-
231210 I52  0.2+  0.3+    231210 I52  0.1-  0.3+

Ephemeris:
2023 XP10                a,e,i = 0.76, 0.44, 31                  q = 0.4259
Date    TT    R. A. (2000) Decl.     Delta      r    Elong.  Phase     V
2023 11 12    10 08 34.5 +56 49 25   0.3343  1.0795    96.4    65.7    24.7
...
2023 11 27    09 15 09.9 +58 47 55   0.2084  1.0905   114.7    55.3    23.4
...
2023 12 05    07 44 04.7 +58 25 41   0.1437  1.0863   131.6    42.7    22.2
...
2023 12 11    05 44 24.8 +50 08 15   0.1050  1.0786   151.9    25.4    21.0
2023 12 12    05 23 08.6 +47 13 52   0.1003  1.0769   155.7    22.1    20.8
2023 12 13    05 02 33.4 +43 47 49   0.09635 1.0751   159.0    19.1    20.6
...
2023 12 19    03 25 26.3 +15 57 22   0.09221 1.0621   146.5    30.8    20.8
...
2023 12 27    02 20 07.2 -12 33 19   0.1319  1.0385   111.2    62.0    22.5
...
2024 01 11    01 35 01.9 -30 41 48   0.2455  0.9748    80.8    84.8    24.4

A. U. Tomatic                (C) Copyright 2023 MPC           M.P.E.C. 2023-X235





More information about the Iaude mailing list